sat.trackr.live / text

‹ back to catalog

STARLINK-3716

NORAD 52092 · 2022-029E

PAYLOAD ACTIVE UNKNOWN

§ Identity

Operator
Country
US
Launch date
2022-03-19
Launch site
AFETR
Launch vehicle
Mass (kg)
RCS (m²)

Purposes: comms

External: N2YO · Heavens-Above · Gunter

§ Orbital elements

Epoch: 2026-05-25T04:35:56.071680Z

Period
95.44 min
Inclination
53.2128°
Eccentricity
0.0001235
Mean motion
15.08840419 rev/d
Perigee alt
538.9 km
Apogee alt
540.6 km
Semi-major
6,917.9 km
B*
-2.1577e-4
RAAN
105.6868°
Arg perigee
65.4264°
Mean anomaly
294.6856°
Rev number
23,220

§ Raw data

STARLINK-37161 52092U 22029E   26145.19162120 -.00003720  00000+0 -21577-3 0  99912 52092  53.2128 105.6868 0001235  65.4264 294.6856 15.08840419232202

JSON: /api/v1/satellites/52092 · /tle

For live sub-satellite position, see the globe view (requires WebGL).

§ Visibility from observer

Set your observer location to see the next 7 days of passes ≥ 10°. The values pass through the URL so the page stays shareable.

No JS? Fill the form by hand. The geolocation button needs JavaScript.